{"data":{"norad_id":68283,"intl_designator":"2026-055X","name":"STARLINK-37124","alt_names":[],"object_type":"PAYLOAD","status":"ACTIVE","operator":null,"country":"US","launch_date":"2026-03-19","launch_site_code":"AFETR","launch_vehicle":null,"mission":null,"orbit_class":"UNKNOWN","rcs_meters":null,"size_class":null,"mass_kg":null,"dimensions":null,"purposes":["comms"],"wikipedia_slug":null,"has_3d_model":false,"image_url":null,"decayed_at":null,"tle_current":{"epoch":"2026-09-20T03:51:45.631584Z","epoch_age_seconds":80707,"freshness":"FRESH","line1":"1 68283U 26055X   26263.16094481  .00017733  00000+0  53460-3 0  9998","line2":"2 68283  53.1576 133.2496 0001203 102.4695 257.6442 15.34406575 29749","mean_motion":15.34406575,"eccentricity":0.0001203,"inclination_deg":53.1576,"raan_deg":133.2496,"arg_perigee_deg":102.4695,"mean_anomaly_deg":257.6442,"bstar":0.0005346,"rev_number":2974,"period_min":93.847355939543,"perigee_km":461.8607472613,"apogee_km":463.50664872124,"semimajor_km":6840.8206979913,"source":"CELESTRAK","updated_at":"2026-09-20T09:00:43.850653Z"}}}